• In Deutschland
  • Länderverzeichnis
  • Für 7 Tage
  • Wassertemperatur
  • Satellitenkarten
  • Wetterkarte
  • Widgets
  • user-avatar
    Anmelden

    Stündliche Wetter Kreta

    Heute, 24 Oktober, Mittwoch

    Zeit Temperatur Niederschläge Wind Luftdruck Luftfeuchtigkeit
    00:00 +17°C° 0.3 mm 2 m/S 705 mmHg 74%
    01:00 +17°C° 0.3 mm 2 m/S 704 mmHg 75%
    02:00 +17°C° 0.3 mm 2 m/S 704 mmHg 77%
    03:00 +17°C° 0.3 mm 2 m/S 704 mmHg 78%
    04:00 +17°C° 0.3 mm 2 m/S 703 mmHg 79%
    05:00 +17°C° 0.3 mm 2 m/S 703 mmHg 81%
    06:00 +18°C° 0.5 mm 1 m/S 703 mmHg 78%
    07:00 +18°C° 0.5 mm 1 m/S 703 mmHg 76%
    08:00 +18°C° 0.5 mm 1 m/S 703 mmHg 73%
    09:00 +18°C° 0.7 mm 1 m/S 703 mmHg 73%
    10:00 +17°C° 0.7 mm 2 m/S 703 mmHg 73%
    11:00 +17°C° 0.7 mm 2 m/S 703 mmHg 73%
    12:00 +17°C° 0.2 mm 3 m/S 703 mmHg 70%
    13:00 +17°C° 0.2 mm 3 m/S 703 mmHg 68%
    14:00 +18°C° 0.2 mm 3 m/S 702 mmHg 65%
    15:00 +18°C° 0 mm 3 m/S 702 mmHg 65%
    16:00 +18°C° 0 mm 3 m/S 702 mmHg 64%
    17:00 +17°C° 0 mm 3 m/S 702 mmHg 64%
    18:00 +17°C° 0.1 mm 3 m/S 702 mmHg 66%
    19:00 +17°C° 0.1 mm 4 m/S 702 mmHg 68%
    20:00 +17°C° 0.1 mm 4 m/S 702 mmHg 71%
    21:00 +17°C° 0 mm 4 m/S 703 mmHg 72%
    22:00 +17°C° 0 mm 4 m/S 703 mmHg 74%
    23:00 +17°C° 0 mm 4 m/S 703 mmHg 75%

    Morgen, 25 Oktober, Donnerstag

    Zeit Temperatur Niederschläge Wind Luftdruck Luftfeuchtigkeit
    00:00 +15°C° 0 mm 4 m/S 703 mmHg 75%
    01:00 +15°C° 0 mm 5 m/S 703 mmHg 75%
    02:00 +15°C° 0 mm 5 m/S 703 mmHg 75%
    03:00 +15°C° 0 mm 5 m/S 703 mmHg 76%
    04:00 +15°C° 0 mm 4 m/S 703 mmHg 76%
    05:00 +15°C° 0 mm 4 m/S 703 mmHg 77%
    06:00 +15°C° 0 mm 5 m/S 703 mmHg 73%
    07:00 +16°C° 0 mm 5 m/S 704 mmHg 70%
    08:00 +16°C° 0 mm 6 m/S 705 mmHg 66%
    09:00 +16°C° 0 mm 7 m/S 705 mmHg 62%
    10:00 +17°C° 0 mm 8 m/S 706 mmHg 59%
    11:00 +17°C° 0 mm 9 m/S 706 mmHg 55%
    12:00 +17°C° 0 mm 9 m/S 707 mmHg 54%
    13:00 +17°C° 0 mm 8 m/S 707 mmHg 52%
    14:00 +16°C° 0 mm 8 m/S 707 mmHg 51%
    15:00 +16°C° 0 mm 8 m/S 707 mmHg 53%
    16:00 +15°C° 0 mm 8 m/S 707 mmHg 54%
    17:00 +14°C° 0 mm 7 m/S 708 mmHg 56%
    18:00 +12°C° 0 mm 7 m/S 708 mmHg 55%
    19:00 +12°C° 0 mm 7 m/S 709 mmHg 54%
    20:00 +11°C° 0 mm 7 m/S 709 mmHg 52%
    21:00 +11°C° 0 mm 6 m/S 709 mmHg 53%
    22:00 +11°C° 0 mm 6 m/S 710 mmHg 53%
    23:00 +12°C° 0 mm 5 m/S 710 mmHg 53%

    übermorgen, 26 Oktober, Freitag

    Zeit Temperatur Niederschläge Wind Luftdruck Luftfeuchtigkeit
    00:00 +12°C° 0 mm 5 m/S 710 mmHg 54%
    01:00 +10°C° 0 mm 5 m/S 710 mmHg 55%
    02:00 +10°C° 0 mm 5 m/S 710 mmHg 56%
    03:00 +11°C° 0 mm 4 m/S 710 mmHg 56%
    04:00 +11°C° 0 mm 4 m/S 710 mmHg 56%
    05:00 +11°C° 0 mm 4 m/S 710 mmHg 56%
    06:00 +12°C° 0 mm 4 m/S 710 mmHg 54%
    07:00 +12°C° 0 mm 4 m/S 711 mmHg 53%
    08:00 +13°C° 0 mm 3 m/S 711 mmHg 51%
    09:00 +14°C° 0 mm 3 m/S 711 mmHg 46%
    10:00 +16°C° 0 mm 3 m/S 712 mmHg 40%
    11:00 +18°C° 0 mm 2 m/S 712 mmHg 35%
    12:00 +18°C° 0 mm 2 m/S 712 mmHg 34%
    13:00 +19°C° 0 mm 2 m/S 712 mmHg 32%
    14:00 +19°C° 0 mm 2 m/S 712 mmHg 31%
    15:00 +19°C° 0 mm 2 m/S 712 mmHg 34%
    16:00 +19°C° 0 mm 2 m/S 712 mmHg 36%
    17:00 +18°C° 0 mm 2 m/S 712 mmHg 39%
    18:00 +18°C° 0 mm 2 m/S 712 mmHg 42%
    19:00 +17°C° 0 mm 2 m/S 712 mmHg 46%
    20:00 +16°C° 0 mm 2 m/S 712 mmHg 49%
    21:00 +16°C° 0 mm 1 m/S 712 mmHg 51%
    22:00 +15°C° 0 mm 1 m/S 713 mmHg 52%
    23:00 +15°C° 0 mm 1 m/S 713 mmHg 54%

    27 Oktober, Samstag

    Zeit Temperatur Niederschläge Wind Luftdruck Luftfeuchtigkeit
    00:00 +15°C° 0 mm 1 m/S 713 mmHg 55%
    01:00 +15°C° 0 mm 1 m/S 712 mmHg 55%
    02:00 +15°C° 0 mm 1 m/S 712 mmHg 56%
    03:00 +14°C° 0 mm 1 m/S 712 mmHg 56%
    04:00 +14°C° 0 mm 1 m/S 712 mmHg 57%
    05:00 +14°C° 0 mm 1 m/S 712 mmHg 58%
    06:00 +15°C° 0 mm 1 m/S 712 mmHg 56%
    07:00 +15°C° 0 mm 2 m/S 712 mmHg 54%
    08:00 +16°C° 0 mm 2 m/S 713 mmHg 52%
    09:00 +17°C° 0 mm 2 m/S 713 mmHg 50%
    10:00 +18°C° 0 mm 2 m/S 713 mmHg 47%
    11:00 +19°C° 0 mm 2 m/S 713 mmHg 44%
    12:00 +19°C° 0 mm 2 m/S 713 mmHg 45%
    13:00 +19°C° 0 mm 2 m/S 713 mmHg 46%
    14:00 +19°C° 0 mm 3 m/S 713 mmHg 47%
    15:00 +19°C° 0 mm 3 m/S 712 mmHg 50%
    16:00 +18°C° 0 mm 2 m/S 712 mmHg 53%
    17:00 +18°C° 0 mm 2 m/S 712 mmHg 56%
    18:00 +17°C° 0 mm 2 m/S 712 mmHg 60%
    19:00 +16°C° 0 mm 2 m/S 712 mmHg 64%
    20:00 +16°C° 0 mm 1 m/S 712 mmHg 68%
    21:00 +15°C° 0 mm 2 m/S 712 mmHg 69%
    22:00 +15°C° 0 mm 2 m/S 712 mmHg 70%
    23:00 +15°C° 0 mm 2 m/S 712 mmHg 72%

    28 Oktober, Sonntag

    Zeit Temperatur Niederschläge Wind Luftdruck Luftfeuchtigkeit
    00:00 +14°C° 0 mm 2 m/S 712 mmHg 72%
    01:00 +14°C° 0 mm 2 m/S 712 mmHg 71%
    02:00 +13°C° 0 mm 3 m/S 712 mmHg 71%
    03:00 +14°C° 0 mm 2 m/S 712 mmHg 72%
    04:00 +14°C° 0 mm 2 m/S 712 mmHg 72%
    05:00 +13°C° 0 mm 2 m/S 712 mmHg 72%
    06:00 +14°C° 0 mm 2 m/S 712 mmHg 68%
    07:00 +15°C° 0 mm 2 m/S 712 mmHg 64%
    08:00 +16°C° 0 mm 2 m/S 712 mmHg 61%
    09:00 +17°C° 0 mm 2 m/S 712 mmHg 58%
    10:00 +18°C° 0 mm 2 m/S 712 mmHg 54%
    11:00 +18°C° 0 mm 2 m/S 712 mmHg 51%
    12:00 +19°C° 0 mm 2 m/S 712 mmHg 52%
    13:00 +19°C° 0 mm 2 m/S 712 mmHg 52%
    14:00 +19°C° 0 mm 3 m/S 712 mmHg 52%
    15:00 +18°C° 0 mm 2 m/S 711 mmHg 54%
    16:00 +18°C° 0 mm 2 m/S 711 mmHg 57%
    17:00 +18°C° 0 mm 2 m/S 711 mmHg 59%
    18:00 +17°C° 0 mm 2 m/S 711 mmHg 61%
    19:00 +17°C° 0 mm 3 m/S 711 mmHg 63%
    20:00 +16°C° 0 mm 3 m/S 712 mmHg 65%
    21:00 +16°C° 0 mm 3 m/S 712 mmHg 65%
    22:00 +16°C° 0 mm 3 m/S 711 mmHg 66%
    23:00 +16°C° 0 mm 3 m/S 711 mmHg 66%

    29 Oktober, Montag

    Zeit Temperatur Niederschläge Wind Luftdruck Luftfeuchtigkeit
    00:00 +14°C° 0 mm 3 m/S 711 mmHg 67%
    01:00 +14°C° 0 mm 3 m/S 711 mmHg 69%
    02:00 +14°C° 0 mm 3 m/S 710 mmHg 70%
    03:00 +14°C° 0 mm 3 m/S 710 mmHg 71%
    04:00 +14°C° 0 mm 3 m/S 710 mmHg 72%
    05:00 +14°C° 0 mm 3 m/S 710 mmHg 73%
    06:00 +16°C° 0 mm 3 m/S 711 mmHg 71%
    07:00 +15°C° 0 mm 4 m/S 711 mmHg 70%
    08:00 +17°C° 0 mm 4 m/S 711 mmHg 68%
    09:00 +18°C° 0 mm 4 m/S 711 mmHg 66%
    10:00 +19°C° 0 mm 4 m/S 711 mmHg 64%
    11:00 +19°C° 0 mm 4 m/S 711 mmHg 62%
    12:00 +20°C° 0 mm 4 m/S 711 mmHg 62%
    13:00 +20°C° 0 mm 3 m/S 711 mmHg 62%
    14:00 +20°C° 0 mm 3 m/S 710 mmHg 63%
    15:00 +19°C° 0 mm 3 m/S 710 mmHg 65%
    16:00 +19°C° 0 mm 3 m/S 710 mmHg 67%
    17:00 +18°C° 0 mm 2 m/S 710 mmHg 69%
    18:00 +18°C° 0 mm 3 m/S 710 mmHg 71%
    19:00 +18°C° 0 mm 3 m/S 710 mmHg 73%
    20:00 +17°C° 0 mm 3 m/S 711 mmHg 75%
    21:00 +17°C° 0 mm 3 m/S 710 mmHg 76%
    22:00 +17°C° 0 mm 4 m/S 710 mmHg 76%
    23:00 +17°C° 0 mm 4 m/S 710 mmHg 76%

    30 Oktober, Dienstag

    Zeit Temperatur Niederschläge Wind Luftdruck Luftfeuchtigkeit
    00:00 +15°C° 0 mm 4 m/S 710 mmHg 77%
    01:00 +15°C° 0 mm 4 m/S 710 mmHg 77%
    02:00 +15°C° 0 mm 4 m/S 709 mmHg 78%
    03:00 +15°C° 0 mm 4 m/S 709 mmHg 78%
    04:00 +15°C° 0 mm 4 m/S 709 mmHg 79%
    05:00 +15°C° 0 mm 4 m/S 709 mmHg 79%
    06:00 +15°C° 0 mm 4 m/S 709 mmHg 77%
    07:00 +17°C° 0 mm 4 m/S 709 mmHg 75%
    08:00 +16°C° 0 mm 5 m/S 709 mmHg 73%
    09:00 +17°C° 0 mm 5 m/S 709 mmHg 71%
    10:00 +19°C° 0 mm 5 m/S 709 mmHg 68%
    11:00 +20°C° 0 mm 5 m/S 709 mmHg 66%
    12:00 +20°C° 0 mm 5 m/S 709 mmHg 67%
    13:00 +20°C° 0 mm 5 m/S 709 mmHg 67%
    14:00 +20°C° 0 mm 5 m/S 709 mmHg 68%
    15:00 +20°C° 0 mm 4 m/S 709 mmHg 71%
    16:00 +19°C° 0 mm 4 m/S 709 mmHg 73%
    17:00 +19°C° 0 mm 4 m/S 709 mmHg 76%
    18:00 +19°C° 0 mm 4 m/S 709 mmHg 78%
    19:00 +18°C° 0 mm 4 m/S 709 mmHg 80%
    20:00 +18°C° 0 mm 3 m/S 709 mmHg 82%
    21:00 +18°C° 0 mm 3 m/S 709 mmHg 83%
    22:00 +18°C° 0 mm 2 m/S 710 mmHg 85%
    23:00 +17°C° 0 mm 2 m/S 710 mmHg 87%
    Mehr zeigen